TimeMDT,TemperatureF,Dew PointF,Humidity,Sea Level PressureIn,VisibilityMPH,Wind Direction,Wind SpeedMPH,Gust SpeedMPH,PrecipitationIn,Events,Conditions,WindDirDegrees,DateUTC
12:53 AM,34.0,28.9,82,30.04,10.0,Calm,Calm,-,N/A,,Scattered Clouds,0,2013-03-28 06:53:00
1:53 AM,33.1,28.0,82,30.03,10.0,Calm,Calm,-,N/A,,Mostly Cloudy,0,2013-03-28 07:53:00
2:53 AM,30.9,28.0,89,30.04,10.0,Calm,Calm,-,N/A,,Mostly Cloudy,0,2013-03-28 08:53:00
3:53 AM,28.9,27.0,92,30.04,10.0,Calm,Calm,-,N/A,,Mostly Cloudy,0,2013-03-28 09:53:00
4:53 AM,28.0,26.1,92,30.06,10.0,ESE,3.5,-,N/A,,Scattered Clouds,120,2013-03-28 10:53:00
5:53 AM,27.0,25.0,92,30.09,10.0,Calm,Calm,-,N/A,,Partly Cloudy,0,2013-03-28 11:53:00
6:53 AM,27.0,24.1,89,30.10,10.0,Calm,Calm,-,N/A,,Mostly Cloudy,0,2013-03-28 12:53:00
7:53 AM,28.0,25.0,88,30.12,10.0,SSE,4.6,-,N/A,,Clear,160,2013-03-28 13:53:00
8:53 AM,30.9,28.0,89,30.12,10.0,Calm,Calm,-,N/A,,Clear,0,2013-03-28 14:53:00
9:53 AM,35.1,28.9,78,30.10,-9999.0,Calm,Calm,-,N/A,,Clear,0,2013-03-28 15:53:00
10:53 AM,43.0,30.0,60,30.08,-9999.0,Calm,Calm,-,N/A,,Clear,0,2013-03-28 16:53:00
11:53 AM,46.9,28.0,48,30.06,10.0,Calm,Calm,-,N/A,,Mostly Cloudy,0,2013-03-28 17:53:00
12:53 PM,50.0,25.0,38,30.05,10.0,NNW,4.6,-,N/A,,Overcast,330,2013-03-28 18:53:00
1:53 PM,50.0,26.1,39,30.03,10.0,NNE,4.6,-,0.00,,Overcast,20,2013-03-28 19:53:00
2:53 PM,52.0,21.0,30,30.02,10.0,WSW,8.1,-,N/A,,Overcast,240,2013-03-28 20:53:00
3:53 PM,52.0,21.0,30,30.03,10.0,SSW,5.8,-,N/A,,Overcast,210,2013-03-28 21:53:00
4:53 PM,52.0,-9999,N/A,30.03,10.0,Variable,4.6,-,N/A,,Overcast,0,2013-03-28 22:53:00
5:53 PM,52.0,25.0,35,30.03,10.0,WNW,10.4,-,N/A,,Scattered Clouds,300,2013-03-28 23:53:00
6:53 PM,50.0,19.0,29,30.04,10.0,NW,6.9,-,N/A,,Overcast,320,2013-03-29 00:53:00
7:53 PM,48.0,25.0,41,30.06,10.0,Calm,Calm,-,N/A,,Overcast,0,2013-03-29 01:53:00
8:53 PM,45.0,30.0,56,30.08,10.0,NW,8.1,-,N/A,,Mostly Cloudy,310,2013-03-29 02:53:00
9:53 PM,41.0,30.9,67,30.09,10.0,Calm,Calm,-,N/A,,Scattered Clouds,0,2013-03-29 03:53:00
10:53 PM,39.0,30.9,73,30.08,10.0,East,3.5,-,N/A,,Mostly Cloudy,100,2013-03-29 04:53:00
11:53 PM,39.9,32.0,73,30.07,10.0,NNW,4.6,-,N/A,,Overcast,330,2013-03-29 05:53:00